Stündliche Wetter Barninek

Heute, 26 Oktober, Montag

Zeit Temperatur Niederschläge Wind Luftdruck Luftfeuchtigkeit
00:00 +11°C° 0 mm 6 m/S 755 mmHg 82%
01:00 +11°C° 0 mm 6 m/S 755 mmHg 84%
02:00 +12°C° 0 mm 5 m/S 755 mmHg 85%
03:00 +12°C° 0 mm 5 m/S 755 mmHg 87%
04:00 +10°C° 0 mm 5 m/S 754 mmHg 88%
05:00 +11°C° 0 mm 4 m/S 754 mmHg 90%
06:00 +10°C° 0 mm 4 m/S 754 mmHg 91%
07:00 +10°C° 0 mm 3 m/S 754 mmHg 93%
08:00 +11°C° 0 mm 3 m/S 754 mmHg 89%
09:00 +12°C° 0 mm 3 m/S 754 mmHg 86%
10:00 +13°C° 0 mm 3 m/S 754 mmHg 82%
11:00 +13°C° 0 mm 3 m/S 754 mmHg 79%
12:00 +14°C° 0 mm 3 m/S 754 mmHg 77%
13:00 +16°C° 0 mm 3 m/S 754 mmHg 74%
14:00 +15°C° 0.1 mm 2 m/S 753 mmHg 78%
15:00 +14°C° 0.1 mm 2 m/S 753 mmHg 83%
16:00 +13°C° 0.1 mm 2 m/S 753 mmHg 87%
17:00 +13°C° 0.4 mm 2 m/S 753 mmHg 89%
18:00 +13°C° 0.4 mm 2 m/S 754 mmHg 91%
19:00 +11°C° 0.4 mm 3 m/S 754 mmHg 93%
20:00 +11°C° 0.3 mm 3 m/S 754 mmHg 93%
21:00 +11°C° 0.3 mm 3 m/S 754 mmHg 93%
22:00 +11°C° 0.3 mm 3 m/S 754 mmHg 93%
23:00 +11°C° 0 mm 3 m/S 755 mmHg 92%

Morgen, 27 Oktober, Dienstag

Zeit Temperatur Niederschläge Wind Luftdruck Luftfeuchtigkeit
00:00 +10°C° 0 mm 2 m/S 755 mmHg 92%
01:00 +10°C° 0 mm 2 m/S 755 mmHg 91%
02:00 +10°C° 0 mm 2 m/S 755 mmHg 91%
03:00 +10°C° 0 mm 2 m/S 755 mmHg 90%
04:00 +9°C° 0 mm 2 m/S 755 mmHg 90%
05:00 +9°C° 0 mm 2 m/S 756 mmHg 89%
06:00 +9°C° 0 mm 2 m/S 756 mmHg 89%
07:00 +9°C° 0 mm 2 m/S 756 mmHg 88%
08:00 +10°C° 0 mm 3 m/S 756 mmHg 84%
09:00 +11°C° 0 mm 3 m/S 756 mmHg 80%
10:00 +12°C° 0 mm 3 m/S 756 mmHg 76%
11:00 +12°C° 0 mm 3 m/S 756 mmHg 74%
12:00 +12°C° 0 mm 3 m/S 756 mmHg 72%
13:00 +13°C° 0 mm 3 m/S 756 mmHg 70%
14:00 +12°C° 0.1 mm 3 m/S 756 mmHg 74%
15:00 +12°C° 0.1 mm 3 m/S 756 mmHg 78%
16:00 +11°C° 0.1 mm 3 m/S 756 mmHg 83%
17:00 +11°C° 0.1 mm 4 m/S 756 mmHg 83%
18:00 +11°C° 0.1 mm 4 m/S 756 mmHg 84%
19:00 +10°C° 0.1 mm 4 m/S 757 mmHg 85%
20:00 +9°C° 0 mm 5 m/S 757 mmHg 84%
21:00 +9°C° 0 mm 5 m/S 757 mmHg 84%
22:00 +9°C° 0 mm 5 m/S 757 mmHg 83%
23:00 +8°C° 0 mm 5 m/S 757 mmHg 85%

übermorgen, 28 Oktober, Mittwoch

Zeit Temperatur Niederschläge Wind Luftdruck Luftfeuchtigkeit
00:00 +8°C° 0 mm 5 m/S 757 mmHg 87%
01:00 +7°C° 0 mm 5 m/S 757 mmHg 90%
02:00 +7°C° 0 mm 5 m/S 757 mmHg 89%
03:00 +7°C° 0 mm 6 m/S 757 mmHg 89%
04:00 +7°C° 0 mm 6 m/S 757 mmHg 89%
05:00 +7°C° 0 mm 6 m/S 757 mmHg 88%
06:00 +7°C° 0 mm 6 m/S 757 mmHg 87%
07:00 +7°C° 0 mm 6 m/S 757 mmHg 86%
08:00 +8°C° 0 mm 7 m/S 757 mmHg 80%
09:00 +9°C° 0 mm 8 m/S 757 mmHg 75%
10:00 +10°C° 0 mm 8 m/S 757 mmHg 69%
11:00 +10°C° 0 mm 8 m/S 757 mmHg 69%
12:00 +10°C° 0 mm 8 m/S 757 mmHg 70%
13:00 +11°C° 0 mm 8 m/S 757 mmHg 70%
14:00 +10°C° 0 mm 7 m/S 757 mmHg 72%
15:00 +10°C° 0 mm 7 m/S 757 mmHg 73%
16:00 +10°C° 0 mm 7 m/S 757 mmHg 75%
17:00 +9°C° 0.1 mm 7 m/S 757 mmHg 76%
18:00 +9°C° 0.1 mm 7 m/S 757 mmHg 77%
19:00 +9°C° 0.1 mm 7 m/S 757 mmHg 78%
20:00 +9°C° 0 mm 6 m/S 757 mmHg 79%
21:00 +8°C° 0 mm 6 m/S 757 mmHg 80%
22:00 +8°C° 0 mm 6 m/S 757 mmHg 81%
23:00 +8°C° 0 mm 6 m/S 757 mmHg 82%

29 Oktober, Donnerstag

Zeit Temperatur Niederschläge Wind Luftdruck Luftfeuchtigkeit
00:00 +8°C° 0 mm 6 m/S 757 mmHg 82%
01:00 +8°C° 0 mm 6 m/S 756 mmHg 83%
02:00 +8°C° 0 mm 6 m/S 756 mmHg 83%
03:00 +8°C° 0 mm 7 m/S 756 mmHg 83%
04:00 +8°C° 0 mm 7 m/S 756 mmHg 84%
05:00 +8°C° 0 mm 7 m/S 756 mmHg 84%
06:00 +8°C° 0 mm 7 m/S 756 mmHg 84%
07:00 +8°C° 0 mm 6 m/S 756 mmHg 85%
08:00 +9°C° 0.1 mm 7 m/S 756 mmHg 83%
09:00 +9°C° 0.1 mm 7 m/S 756 mmHg 82%
10:00 +10°C° 0.1 mm 7 m/S 757 mmHg 81%
11:00 +10°C° 0.2 mm 7 m/S 757 mmHg 76%
12:00 +11°C° 0.2 mm 8 m/S 757 mmHg 71%
13:00 +11°C° 0.2 mm 8 m/S 757 mmHg 67%
14:00 +11°C° 0 mm 7 m/S 758 mmHg 69%
15:00 +11°C° 0 mm 7 m/S 758 mmHg 71%
16:00 +10°C° 0 mm 6 m/S 758 mmHg 73%
17:00 +10°C° 0 mm 6 m/S 759 mmHg 75%
18:00 +9°C° 0 mm 6 m/S 759 mmHg 77%
19:00 +9°C° 0 mm 6 m/S 760 mmHg 78%
20:00 +9°C° 0 mm 7 m/S 760 mmHg 78%
21:00 +9°C° 0 mm 7 m/S 760 mmHg 78%
22:00 +9°C° 0 mm 7 m/S 760 mmHg 78%
23:00 +9°C° 0 mm 7 m/S 760 mmHg 78%

30 Oktober, Freitag

Zeit Temperatur Niederschläge Wind Luftdruck Luftfeuchtigkeit
00:00 +9°C° 0 mm 8 m/S 759 mmHg 77%
01:00 +9°C° 0 mm 8 m/S 759 mmHg 76%
02:00 +8°C° 0.4 mm 9 m/S 759 mmHg 79%
03:00 +8°C° 0.4 mm 9 m/S 758 mmHg 82%
04:00 +8°C° 0.4 mm 10 m/S 758 mmHg 85%
05:00 +10°C° 0.3 mm 9 m/S 758 mmHg 85%
06:00 +10°C° 0.3 mm 9 m/S 758 mmHg 86%
07:00 +11°C° 0.3 mm 9 m/S 758 mmHg 86%
08:00 +11°C° 0.1 mm 9 m/S 758 mmHg 86%
09:00 +12°C° 0.1 mm 9 m/S 759 mmHg 86%
10:00 +12°C° 0.1 mm 8 m/S 759 mmHg 86%
11:00 +12°C° 0.2 mm 8 m/S 759 mmHg 85%
12:00 +12°C° 0.2 mm 8 m/S 759 mmHg 85%
13:00 +12°C° 0.2 mm 8 m/S 760 mmHg 84%
14:00 +12°C° 0.1 mm 8 m/S 760 mmHg 83%
15:00 +13°C° 0.1 mm 8 m/S 760 mmHg 82%
16:00 +14°C° 0.1 mm 7 m/S 760 mmHg 80%
17:00 +14°C° 0 mm 7 m/S 760 mmHg 80%
18:00 +12°C° 0 mm 7 m/S 760 mmHg 80%
19:00 +12°C° 0 mm 7 m/S 761 mmHg 80%
20:00 +12°C° 0 mm 7 m/S 761 mmHg 80%
21:00 +12°C° 0 mm 7 m/S 761 mmHg 80%
22:00 +12°C° 0 mm 7 m/S 761 mmHg 80%
23:00 +13°C° 0 mm 6 m/S 761 mmHg 81%

31 Oktober, Samstag

Zeit Temperatur Niederschläge Wind Luftdruck Luftfeuchtigkeit
00:00 +11°C° 0 mm 6 m/S 761 mmHg 83%
01:00 +11°C° 0 mm 6 m/S 762 mmHg 84%
02:00 +10°C° 0 mm 5 m/S 762 mmHg 86%
03:00 +10°C° 0 mm 5 m/S 762 mmHg 87%
04:00 +9°C° 0 mm 5 m/S 762 mmHg 89%
05:00 +9°C° 0 mm 5 m/S 762 mmHg 89%
06:00 +9°C° 0 mm 5 m/S 762 mmHg 90%
07:00 +9°C° 0 mm 5 m/S 762 mmHg 91%
Mehr zeigen